| time (UTC) | temp F | wind direction | speed knots | gust knots | rain 1hr in | rain 24hr in | rain mn in | humidity % | barometer mb |
| 20260505041518 | 49 | 238 | 1.7 | 6.1 | 0.00 | 0.00 | 0.00 | 89 | 1012.5 |
| 20260505040016 | 49 | 217 | 0.9 | 6.1 | 0.00 | 0.00 | 0.00 | 89 | 1012.5 |
| 20260505034518 | 49 | 240 | 1.7 | 4.3 | 0.00 | 0.00 | 0.00 | 88 | 1012.6 |
| 20260505033028 | 50 | 230 | 0.9 | 4.3 | 0.00 | 0.00 | 0.00 | 87 | 1012.5 |
| 20260505031515 | 50 | 212 | 0.9 | 6.1 | 0.00 | 0.00 | 0.00 | 87 | 1012.5 |
| 20260505030014 | 50 | 232 | 2.6 | 6.1 | 0.00 | 0.00 | 0.00 | 86 | 1012.6 |
| 20260505024530 | 51 | 198 | 1.7 | 6.1 | 0.00 | 0.00 | 0.00 | 86 | 1012.6 |
| 20260505023014 | 51 | 226 | 2.6 | 7.8 | 0.00 | 0.00 | 0.00 | 86 | 1012.6 |
| 20260505021528 | 51 | 205 | 2.6 | 12.2 | 0.00 | 0.00 | 0.00 | 86 | 1012.6 |
| 20260505020012 | 51 | 226 | 0.9 | 7.0 | 0.00 | 0.00 | 0.00 | 85 | 1012.8 |
| 20260505014513 | 51 | 198 | 1.7 | 11.3 | 0.00 | 0.00 | 0.00 | 85 | 1012.7 |
| 20260505013011 | 51 | 232 | 2.6 | 11.3 | 0.00 | 0.00 | 0.00 | 85 | 1012.6 |
| 20260505011512 | 51 | 217 | 0.9 | 9.6 | 0.00 | 0.00 | 0.00 | 84 | 1012.4 |
| 20260505010010 | 51 | 245 | 1.7 | 6.1 | 0.00 | 0.00 | 0.00 | 84 | 1012.2 |
| 20260505004521 | 51 | 259 | 0.9 | 5.2 | 0.00 | 0.00 | 0.00 | 83 | 1011.8 |
| 20260505003010 | 51 | 242 | 1.7 | 7.0 | 0.00 | 0.00 | 0.00 | 82 | 1011.5 |
| 20260505001510 | 51 | 231 | 0.9 | 10.4 | 0.00 | 0.00 | 0.00 | 81 | 1011.4 |
| 20260505000010 | 52 | 238 | 3.5 | 11.3 | 0.00 | 0.00 | 0.00 | 81 | 1011.2 |
| 20260504234508 | 52 | 212 | 3.5 | 12.2 | 0.00 | 0.00 | 0.00 | 80 | 1011.0 |
| 20260504233008 | 53 | 128 | 5.2 | 13.0 | 0.00 | 0.00 | 0.00 | 79 | 1010.9 |
| 20260504231507 | 54 | 229 | 3.5 | 12.2 | 0.00 | 0.00 | 0.00 | 78 | 1010.8 |
| 20260504230007 | 54 | 255 | 4.3 | 14.8 | 0.00 | 0.00 | 0.00 | 76 | 1010.6 |
| 20260504224508 | 55 | 233 | 5.2 | 16.5 | 0.00 | 0.00 | 0.00 | 74 | 1010.6 |
| 20260504223006 | 55 | 244 | 4.3 | 14.8 | 0.00 | 0.00 | 0.00 | 73 | 1010.6 |
| 20260504221505 | 56 | 234 | 6.1 | 20.9 | 0.00 | 0.00 | 0.00 | 71 | 1010.5 |
| 20260504220005 | 57 | 254 | 6.1 | 16.5 | 0.00 | 0.00 | 0.00 | 69 | 1010.6 |
| 20260504214504 | 57 | 219 | 5.2 | 13.9 | 0.00 | 0.00 | 0.00 | 67 | 1010.5 |
| 20260504213004 | 59 | 242 | 5.2 | 16.5 | 0.00 | 0.00 | 0.00 | 63 | 1010.5 |
| 20260504211504 | 59 | 198 | 6.1 | 14.8 | 0.00 | 0.00 | 0.00 | 63 | 1010.6 |
| 20260504210003 | 60 | 229 | 4.3 | 12.2 | 0.00 | 0.00 | 0.00 | 61 | 1010.7 |
| 20260504204507 | 60 | 224 | 5.2 | 16.5 | 0.00 | 0.00 | 0.00 | 62 | 1010.6 |
| 20260504203002 | 60 | 216 | 3.5 | 10.4 | 0.00 | 0.00 | 0.00 | 63 | 1010.5 |
| 20260504201501 | 60 | 212 | 4.3 | 14.8 | 0.00 | 0.00 | 0.00 | 63 | 1010.4 |
| 20260504200001 | 61 | 240 | 4.3 | 12.2 | 0.00 | 0.00 | 0.00 | 62 | 1010.5 |
| 20260504194600 | 61 | 251 | 4.3 | 16.5 | 0.00 | 0.00 | 0.00 | 61 | 1010.5 |
| 20260504193102 | 60 | 269 | 2.6 | 16.5 | 0.00 | 0.00 | 0.00 | 62 | 1010.5 |
| 20260504191559 | 61 | 230 | 7.0 | 16.5 | 0.00 | 0.00 | 0.00 | 58 | 1010.6 |
| 20260504190058 | 62 | 197 | 7.0 | 18.2 | 0.00 | 0.00 | 0.00 | 54 | 1010.7 |
| 20260504184600 | 62 | 250 | 3.5 | 19.1 | 0.00 | 0.00 | 0.00 | 55 | 1010.9 |
| 20260504183101 | 64 | 176 | 3.5 | 13.0 | 0.00 | 0.00 | 0.00 | 54 | 1011.0 |
| 20260504181555 | 65 | 208 | 3.5 | 13.9 | 0.00 | 0.00 | 0.00 | 50 | 1011.0 |
| 20260504180054 | 64 | 238 | 4.3 | 12.2 | 0.00 | 0.00 | 0.00 | 51 | 1011.1 |
| 20260504174553 | 65 | 237 | 4.3 | 10.4 | 0.00 | 0.00 | 0.00 | 52 | 1011.1 |
| 20260504173057 | 64 | 234 | 4.3 | 11.3 | 0.00 | 0.00 | 0.00 | 52 | 1011.2 |
| 20260504171551 | 64 | 221 | 5.2 | 16.5 | 0.00 | 0.00 | 0.00 | 51 | 1011.2 |
| 20260504081540 | 38 | 267 | 0.9 | 1.7 | 0.00 | 0.00 | 0.00 | 90 | 1012.3 |
| 20260504050014 | 37 | 271 | 0.0 | 0.0 | 0.00 | 0.00 | 0.00 | 87 | 1012.0 |
| 20260504044506 | 37 | 271 | 0.0 | 0.0 | 0.00 | 0.00 | 0.00 | 87 | 1012.0 |
| 20260504043005 | 37 | 271 | 0.0 | 0.0 | 0.00 | 0.00 | 0.00 | 85 | 1012.0 |